| time (UTC) | temp F | wind direction | speed knots | gust knots | rain 1hr in | rain 24hr in | rain mn in | humidity % | barometer mb |
| 20260505101715 | 65 | 225 | 0.0 | 2.6 | 0.00 | 0.00 | 0.00 | 59 | 1018.0 |
| 20260505100715 | 66 | 135 | 0.9 | 3.5 | 0.00 | 0.00 | 0.00 | 58 | 1017.7 |
| 20260505095716 | 66 | 180 | 0.0 | 5.2 | 0.00 | 0.00 | 0.00 | 55 | 1017.7 |
| 20260505094717 | 67 | 180 | 3.5 | 12.2 | 0.00 | 0.00 | 0.00 | 55 | 1017.7 |
| 20260505093717 | 68 | 225 | 1.7 | 7.8 | 0.00 | 0.00 | 0.00 | 53 | 1017.8 |
| 20260505092717 | 68 | 180 | 1.7 | 7.8 | 0.00 | 0.00 | 0.00 | 52 | 1017.7 |
| 20260505091718 | 69 | 180 | 3.5 | 9.6 | 0.00 | 0.00 | 0.00 | 52 | 1017.9 |
| 20260505090718 | 69 | 225 | 3.5 | 9.6 | 0.00 | 0.00 | 0.00 | 51 | 1017.6 |
| 20260505085719 | 69 | 180 | 5.2 | 13.0 | 0.00 | 0.00 | 0.00 | 51 | 1017.6 |
| 20260505084719 | 70 | 135 | 3.5 | 9.6 | 0.00 | 0.00 | 0.00 | 49 | 1017.5 |
| 20260505083720 | 71 | 180 | 5.2 | 11.3 | 0.00 | 0.00 | 0.00 | 49 | 1017.6 |
| 20260505082720 | 71 | 180 | 6.1 | 9.6 | 0.00 | 0.00 | 0.00 | 46 | 1017.4 |
| 20260505081720 | 72 | 180 | 5.2 | 9.6 | 0.00 | 0.00 | 0.00 | 44 | 1017.2 |
| 20260505080720 | 73 | 180 | 3.5 | 9.6 | 0.00 | 0.00 | 0.00 | 42 | 1017.1 |
| 20260505075720 | 73 | 180 | 4.3 | 9.6 | 0.00 | 0.00 | 0.00 | 44 | 1017.0 |
| 20260505074721 | 74 | 180 | 3.5 | 10.4 | 0.00 | 0.00 | 0.00 | 41 | 1016.9 |
| 20260505073721 | 75 | 180 | 4.3 | 10.4 | 0.00 | 0.00 | 0.00 | 42 | 1016.9 |
| 20260505072721 | 75 | 180 | 3.5 | 7.0 | 0.00 | 0.00 | 0.00 | 38 | 1017.0 |
| 20260505071721 | 75 | 180 | 3.5 | 7.8 | 0.00 | 0.00 | 0.00 | 39 | 1016.8 |
| 20260505070721 | 76 | 180 | 3.5 | 7.8 | 0.00 | 0.00 | 0.00 | 37 | 1016.9 |
| 20260505065721 | 77 | 180 | 4.3 | 7.0 | 0.00 | 0.00 | 0.00 | 39 | 1016.9 |
| 20260505064721 | 77 | 180 | 5.2 | 9.6 | 0.00 | 0.00 | 0.00 | 37 | 1016.9 |
| 20260505063722 | 78 | 180 | 3.5 | 7.0 | 0.00 | 0.00 | 0.00 | 38 | 1016.9 |
| 20260505062722 | 77 | 203 | 4.3 | 8.7 | 0.00 | 0.00 | 0.00 | 39 | 1016.8 |
| 20260505061722 | 78 | 180 | 2.6 | 7.0 | 0.00 | 0.00 | 0.00 | 37 | 1016.8 |
| 20260505060722 | 78 | 180 | 5.2 | 9.6 | 0.00 | 0.00 | 0.00 | 37 | 1016.9 |
| 20260505055722 | 79 | 180 | 4.3 | 9.6 | 0.00 | 0.00 | 0.00 | 37 | 1017.0 |
| 20260505054722 | 78 | 180 | 0.9 | 3.5 | 0.00 | 0.00 | 0.00 | 37 | 1017.1 |
| 20260505053722 | 78 | 270 | 0.0 | 7.8 | 0.00 | 0.00 | 0.00 | 35 | 1017.3 |
| 20260505052722 | 79 | 0 | 0.9 | 4.3 | 0.00 | 0.00 | 0.00 | 34 | 1017.3 |
| 20260505051722 | 80 | 0 | 2.6 | 4.3 | 0.00 | 0.00 | 0.00 | 34 | 1017.5 |
| 20260505050722 | 83 | 315 | 0.0 | 4.3 | 0.00 | 0.00 | 0.00 | 31 | 1017.5 |
| 20260505041719 | 80 | 225 | 0.0 | 4.3 | 0.00 | 0.00 | 0.00 | 32 | 1018.0 |
| 20260505040719 | 82 | 315 | 0.9 | 3.5 | 0.00 | 0.00 | 0.00 | 35 | 1018.2 |
| 20260505035718 | 80 | 315 | 0.9 | 3.5 | 0.00 | 0.00 | 0.00 | 34 | 1018.4 |
| 20260505034718 | 82 | 270 | 2.6 | 4.3 | 0.00 | 0.00 | 0.00 | 35 | 1018.4 |
| 20260505033718 | 81 | 0 | 3.5 | 7.0 | 0.00 | 0.00 | 0.00 | 31 | 1018.5 |
| 20260505032717 | 82 | 0 | 0.9 | 2.6 | 0.00 | 0.00 | 0.00 | 40 | 1018.8 |
| 20260505031717 | 78 | 0 | 1.7 | 3.5 | 0.00 | 0.00 | 0.00 | 32 | 1018.9 |
| 20260505030717 | 78 | 315 | 1.7 | 5.2 | 0.00 | 0.00 | 0.00 | 35 | 1019.1 |
| 20260505025717 | 79 | 315 | 1.7 | 2.6 | 0.00 | 0.00 | 0.00 | 37 | 1019.2 |
| 20260505024716 | 80 | 270 | 0.0 | 2.6 | 0.00 | 0.00 | 0.00 | 34 | 1019.4 |
| 20260505023716 | 76 | 0 | 1.7 | 7.0 | 0.00 | 0.00 | 0.00 | 34 | 1019.6 |
| 20260505022716 | 77 | 315 | 1.7 | 3.5 | 0.00 | 0.00 | 0.00 | 36 | 1019.6 |
| 20260505021716 | 76 | 90 | 0.0 | 2.6 | 0.00 | 0.00 | 0.00 | 34 | 1019.8 |
| 20260505020716 | 75 | 0 | 1.7 | 3.5 | 0.00 | 0.00 | 0.00 | 36 | 1019.8 |
| 20260505015716 | 75 | 0 | 0.0 | 4.3 | 0.00 | 0.00 | 0.00 | 37 | 1019.9 |
| 20260505014716 | 74 | 0 | 0.0 | 2.6 | 0.00 | 0.00 | 0.00 | 44 | 1020.0 |
| 20260505013716 | 74 | 270 | 0.0 | 0.9 | 0.00 | 0.00 | 0.00 | 41 | 1020.1 |
| 20260505012717 | 71 | 0 | 1.7 | 3.5 | 0.00 | 0.00 | 0.00 | 38 | 1020.1 |
| 20260505011717 | 71 | 338 | 0.9 | 2.6 | 0.00 | 0.00 | 0.00 | 43 | 1020.3 |
| 20260505010717 | 71 | 315 | 0.9 | 2.6 | 0.00 | 0.00 | 0.00 | 48 | 1020.3 |
| 20260505005717 | 68 | 315 | 0.0 | 1.7 | 0.00 | 0.00 | 0.00 | 50 | 1020.3 |
| 20260505004718 | 67 | 90 | 0.0 | 1.7 | 0.00 | 0.00 | 0.00 | 50 | 1020.4 |
| 20260505003718 | 68 | 0 | 0.0 | 1.7 | 0.00 | 0.00 | 0.00 | 50 | 1020.4 |
| 20260505002718 | 68 | 180 | 0.0 | 1.7 | 0.00 | 0.00 | 0.00 | 53 | 1020.4 |
| 20260505001719 | 66 | 315 | 1.7 | 2.6 | 0.00 | 0.00 | 0.00 | 55 | 1020.3 |
| 20260505000719 | 63 | 315 | 0.0 | 2.6 | 0.00 | 0.00 | 0.00 | 60 | 1020.4 |
| 20260504235719 | 62 | 225 | 0.0 | 2.6 | 0.00 | 0.00 | 0.00 | 65 | 1020.4 |
| 20260504234720 | 61 | 338 | 0.9 | 2.6 | 0.00 | 0.00 | 0.00 | 63 | 1020.6 |
| 20260504233720 | 62 | 338 | 1.7 | 2.6 | 0.00 | 0.00 | 0.00 | 65 | 1020.7 |
| 20260504232721 | 61 | 315 | 0.9 | 1.7 | 0.00 | 0.00 | 0.00 | 67 | 1020.8 |
| 20260504231721 | 59 | 0 | 1.7 | 2.6 | 0.00 | 0.00 | 0.00 | 69 | 1020.8 |
| 20260504230721 | 58 | 315 | 0.9 | 2.6 | 0.00 | 0.00 | 0.00 | 73 | 1020.9 |
| 20260504225722 | 58 | 315 | 1.7 | 2.6 | 0.00 | 0.00 | 0.00 | 73 | 1020.7 |
| 20260504224722 | 58 | 338 | 0.9 | 1.7 | 0.00 | 0.00 | 0.00 | 72 | 1020.7 |
| 20260504223723 | 56 | 315 | 0.0 | 1.7 | 0.00 | 0.00 | 0.00 | 76 | 1020.6 |
| 20260504222723 | 55 | 0 | 0.0 | 1.7 | 0.00 | 0.00 | 0.00 | 77 | 1020.7 |
| 20260504221724 | 54 | 315 | 0.0 | 1.7 | 0.00 | 0.00 | 0.00 | 78 | 1020.7 |
| 20260504220725 | 54 | 0 | 0.0 | 0.9 | 0.00 | 0.00 | 0.00 | 78 | 1020.6 |
| 20260504215725 | 56 | 0 | 0.0 | 0.9 | 0.00 | 0.00 | 0.00 | 73 | 1020.4 |
| 20260504214726 | 55 | 180 | 0.0 | 1.7 | 0.00 | 0.00 | 0.00 | 81 | 1020.5 |
| 20260504213727 | 51 | 135 | 0.0 | 0.9 | 0.00 | 0.00 | 0.00 | 83 | 1020.4 |
| 20260504212728 | 51 | 90 | 0.0 | 0.0 | 0.00 | 0.00 | 0.00 | 82 | 1020.4 |
| 20260504211729 | 49 | 180 | 0.0 | 0.0 | 0.00 | 0.00 | 0.00 | 90 | 1020.4 |
| 20260504210730 | 47 | 135 | 0.0 | 0.9 | 0.00 | 0.00 | 0.00 | 89 | 1020.4 |
| 20260504205731 | 46 | 45 | 0.0 | 0.0 | 0.00 | 0.00 | 0.00 | 88 | 1020.5 |
| 20260504204732 | 46 | 315 | 0.0 | 2.6 | 0.00 | 0.00 | 0.00 | 87 | 1020.3 |
| 20260504203734 | 47 | 315 | 0.0 | 0.9 | 0.00 | 0.00 | 0.00 | 87 | 1020.0 |
| 20260504202735 | 46 | 180 | 0.0 | 1.7 | 0.00 | 0.00 | 0.00 | 87 | 1019.9 |
| 20260504201736 | 46 | 315 | 0.0 | 0.9 | 0.00 | 0.00 | 0.00 | 87 | 1019.7 |
| 20260504200737 | 46 | 45 | 0.0 | 0.0 | 0.00 | 0.00 | 0.00 | 87 | 1019.7 |
| 20260504195738 | 47 | 90 | 0.0 | 0.9 | 0.00 | 0.00 | 0.00 | 87 | 1019.8 |
| 20260504194739 | 47 | 45 | 0.0 | 0.0 | 0.00 | 0.00 | 0.00 | 85 | 1019.7 |
| 20260504193740 | 48 | 135 | 0.9 | 1.7 | 0.00 | 0.00 | 0.00 | 86 | 1019.7 |
| 20260504192741 | 48 | 225 | 0.0 | 0.9 | 0.00 | 0.00 | 0.00 | 87 | 1019.6 |
| 20260504191742 | 48 | 135 | 0.0 | 0.9 | 0.00 | 0.00 | 0.00 | 87 | 1019.5 |
| 20260504190743 | 47 | 180 | 0.0 | 0.9 | 0.00 | 0.00 | 0.00 | 88 | 1019.5 |
| 20260504185744 | 48 | 180 | 0.0 | 1.7 | 0.00 | 0.00 | 0.00 | 88 | 1019.3 |
| 20260504184745 | 48 | 180 | 0.0 | 1.7 | 0.00 | 0.00 | 0.00 | 88 | 1019.4 |
| 20260504183746 | 49 | 315 | 0.0 | 0.0 | 0.00 | 0.00 | 0.00 | 88 | 1019.2 |
| 20260504182747 | 49 | 270 | 0.0 | 0.0 | 0.00 | 0.00 | 0.00 | 88 | 1019.0 |
| 20260504181748 | 49 | 225 | 0.0 | 1.7 | 0.00 | 0.00 | 0.00 | 88 | 1019.0 |
| 20260504180749 | 49 | 180 | 0.0 | 0.9 | 0.00 | 0.00 | 0.00 | 88 | 1018.9 |
| 20260504175750 | 49 | 315 | 0.0 | 0.9 | 0.00 | 0.00 | 0.00 | 88 | 1018.8 |
| 20260504174751 | 50 | 315 | 0.0 | 0.0 | 0.00 | 0.00 | 0.00 | 87 | 1018.8 |
| 20260504173752 | 50 | 0 | 0.0 | 0.0 | 0.00 | 0.00 | 0.00 | 87 | 1018.8 |
| 20260504172753 | 50 | 180 | 0.0 | 1.7 | 0.00 | 0.00 | 0.00 | 86 | 1018.8 |
| 20260504171754 | 50 | 180 | 1.7 | 1.7 | 0.00 | 0.00 | 0.00 | 85 | 1018.9 |
| 20260504170755 | 50 | 180 | 0.0 | 0.0 | 0.00 | 0.00 | 0.00 | 85 | 1018.9 |
| 20260504150806 | 53 | 180 | 0.0 | 1.7 | 0.00 | 0.00 | 0.00 | 82 | 1018.6 |
| 20260504140811 | 55 | 180 | 0.9 | 2.6 | 0.00 | 0.00 | 0.00 | 77 | 1018.0 |
| 20260504130816 | 56 | 180 | 0.0 | 1.7 | 0.00 | 0.00 | 0.00 | 73 | 1017.9 |